697  
ASHW40 PHFO 240012  
RWRHI  
 
WEATHER ROUNDUP FOR HAWAII  
NATIONAL WEATHER SERVICE HONOLULU HI  
200 PM HST SUN SEP 23 2018  
 
THIS IS AN AUTOMATED REPORT THAT HAS NOT BEEN QUALITY CONTROLLED.  
 
NOTE..."FAIR" INDICATES FEW OR NO CLOUDS BELOW 12,000 FEET WITH NO  
SIGNIFICANT WEATHER AND/OR S TO VISIBILITY
.  
 
* - THESE SITES REPORT LIMITED FIELDS  
# - BUOY DATA PROVIDED BY PACIFIC ISLANDS OCEAN OBSERVING SYSTEM.  
 
HIZ001>004-240100-  
KAUAI-NIIHAU-  
 
CITY SKY/WX TMP DP RH WIND PRES REMARKS
 
LIHUE APT CLOUDY 80 75 84 SE12 29.86F  
PORT ALLEN* N/A 84 N/A N/A SE14G21 N/A  
POIPU* N/A 82 N/A N/A E5 N/A  
PRINCEVILLE* N/A 84 N/A N/A NE1G7 N/A  
KOKOLE POINT* NOT AVBL  
MOLOAA DAIRY* N/A 81 73 78 SE12G20 N/A  
WAIMEA HTS* NOT AVBL  
PUU OPAE* NOT AVBL  
PUU LUA* NOT AVBL  
MAKAHA RIDGE* NOT AVBL  

 
 
HIZ005>011-240100-  
OAHU-  
 
CITY SKY/WX TMP DP RH WIND PRES REMARKS
 
HONOLULU PTSUNNY 85 70 60 SE14 29.84F  
KALAELOA MOSUNNY 86 71 60 SE13 29.86F HX 91  
KANEOHE MCB CLOUDY 83 73 72 E7 29.82F  
WHEELER FIELD NOT AVBL  
BELLOWS* NOT AVBL  
KAHUKU* NOT AVBL  
WHEELER* NOT AVBL  
WAIANAE HARBOR NOT AVBL  
DILLINGHAM* N/A 84 73 70 NW1G7 N/A HX 91  
KAHUKU TRN* N/A 70 66 88 SE1G10 N/A  
KAWAILOA* N/A 79 70 73 N2G8 N/A  
KII* N/A 81 73 78 SE12 N/A  
MAKUA RANGE* N/A 84 72 65 W7G14 N/A  
OAHU FOREST NW NOT AVBL  
SCHOFIELD BRK* N/A 64 57 77 NW8 N/A  
SCHOFIELD S* NOT AVBL  
WAIANAE VLY* NOT AVBL  
KUAOKALA* NOT AVBL  
HONOULIUULI* NOT AVBL  
MOKUOLOE IS* NOT AVBL  
PALEHUA* NOT AVBL  
WAIAWA PHB* NOT AVBL  

 
 
HIZ012>013-240100-  
MOLOKAI-  
 
CITY SKY/WX TMP DP RH WIND PRES REMARKS
 
MOLOKAI AIRPT MOSUNNY 87 71 58 SE9 29.86F HX 93  
KALAUPAPA NOT AVBL  
MAKAPULAPAI* NOT AVBL  
MOLOKAI 1* NOT AVBL  
PUU ALII* NOT AVBL  

 
 
HIZ016-240100-  
KAHOOLAWE-  
 
CITY SKY/WX TMP DP RH WIND PRES REMARKS
 
KAHOOLAWE* NOT AVBL  
HAKIOAWA* NOT AVBL  
HONOKANAIA* NOT AVBL  
KANELOA* N/A 82 70 65 E16G23 29.94F  
KEALIALALO* NOT AVBL  
LUA MAKIKA* NOT AVBL  

 
 
HIZ014>015-240100-  
LANAI-  
 
CITY SKY/WX TMP DP RH WIND PRES REMARKS
 
LANAI CITY PTSUNNY 80 68 66 VRB7 29.92F  
LANAI 1* NOT AVBL  

 
 
HIZ017>028-240100-  
MAUI-  
 
CITY SKY/WX TMP DP RH WIND PRES REMARKS
 
KAHULUI MOSUNNY 91 74 57 NE15 29.83F HX 100  
KAPALUA-W MAUI MOSUNNY 86 70 58 VRB6 29.85F HX 90  
HANA AIRPORT NOT AVBL  
HANA* N/A 82 N/A N/A E9G16 N/A  
HALEAKALA SUMM N/A 66 23 19 SE9 N/A  
MAALAEA BAY* NOT AVBL  
HALEAKALA* NOT AVBL  
KAUPO GAP* NOT AVBL  
KULA 1* N/A 65 59 80 NW5G10 N/A  

 
 
HIZ023>026-240100-  
BIG ISLAND OF HAWAII COAST AND LOWER SLOPES-  
 
CITY SKY/WX TMP DP RH WIND PRES REMARKS
 
KAILUA KONA MOSUNNY 85 71 63 W9 29.82F HX 90  
HILO PTSUNNY 84 71 65 E12 29.85F  
HONOKAA* NOT AVBL  
KAWAIHAE MWT* NOT AVBL  
KAWAIHAE* NOT AVBL  
SOUTH POINT* NOT AVBL  
UPOLU AIRPORT* NOT AVBL  
KAMUELA* MOCLDY 82 64 54 CALM 29.96F  
HAKALAU* N/A 71 62 73 SE5 N/A  
KALOKO-HONOKO* NOT AVBL  
PALI 2* N/A 72 68 88 SE10G17 N/A  
KEALAKOMO* N/A 86 72 62 E13 N/A HX 92  
KAUPULEHU* NOT AVBL  
KAPAPALA* N/A 76 69 79 E5G13 N/A  
LOWER KAHUKU* NOT AVBL  
PUHE CS* NOT AVBL  
PUHO CS* NOT AVBL  
PTA KEAMUKU* N/A 77 64 65 W9G16 N/A  
WAIKOLOA* NOT AVBL  

 
 
HIZ027>028-240100-  
BIG ISLAND OF HAWAII INTERIOR AND SUMMMITS-  
 
CITY SKY/WX TMP DP RH WIND PRES REMARKS
 
BRADSHAW FIELD NOT AVBL  
MK VISITOR CEN N/A 63 52 67 W9 N/A  
MAUNA KEA* N/A 54 27 35 SW2G25 N/A  
MAUNA LOA* NOT AVBL  
MAUNA LOA 1* NOT AVBL  
PTA KIPUKA* N/A N/A N/A N/A S6 N/A  
PTA RANGE 17* N/A 54 46 76 SE10G17 N/A  
PTA WEST* N/A 72 63 73 NW9 N/A  
NENE CABIN* NOT AVBL  
AHUMOA* NOT AVBL  
PTA PORTABLE* NOT AVBL  
PUU MALI* N/A 64 61 88 NW5G12 N/A  

 
 
HIC003-240100-  
NORTHWEST ISLANDS-  
 
CITY SKY/WX TMP DP RH WIND PRES REMARKS
 
MIDWAY ISLAND LGT RAIN 75 73 94 NE8 29.91F FOG  
MIDWAY NOS* NOT AVBL  
FRENCH FRIGATE NOT AVBL  

 
 
PHZ110>124-180-240100-  
BUOY REPORTS  
 
STATION/POSITION TIME TEMP WIND PRES WAVE SWELL
 
AIR SEA DIR/SP/G HT/PER HT/DIR  
(UTC) (F) (DEG/KT/KT) (MB) (FT/S) (FT/D)  
BUOY 51101 0000 73 80/ 16/ 19 1010.2  
BUOY 51100 NOT AVBL  
BUOY 51002 2350 1009.7F 5/11  
BUOY 51003 2350 81 81 140/ 12/ 14 1009.2F 5/10 5/160  
BUOY 51004 2350 81 82 60/ 14/ 17 1010.1F 6/ 8  
WAIMEA BAY# NOT AVBL  
MOKAPU POINT# 2330 81 N/A 5/ 9 2/ 10  
LANAI# NOT AVBL  
BARBERS PT 2# NOT AVBL  
PAUWELA# 2330 80 N/A 5/ 8 2/ 10  
HILO# 2357 81 N/A 5/ 8 2/ 10  
KANEOHE BAY# 2354 80 N/A 4/ 8 2  
KANEOHE BAY 2# NOT AVBL  
HANALEI# 2336 83 N/A 5/ 9 2/ 10  
KAHULUI HARBOR 2342 81 50/ 11/ 18 1010.5F  
HONOLULU HARBOR 2348 82 170/ 8/ 12 1010.4F  
PEARL HARBOR# 2330 82 N/A 3/10 2/160  
KILO NALU NOT AVBL  
HILO HARBOR 2330 88 81 70/ 8/ 12 1010.7F  
MOKUOLOE 2336 81 81 90/ 6/ 10 1011.0F  
NAWILIWILI 2348 80 140/ 9/ 10 1010.8F  
WHOTS BUOY NOT AVBL  
BUOY 51028 NOT AVBL  

 
   
.....................KEY.....................................
 
 
SKY/WX - SKY CONDITIONS/PRESENT WEATHER  
TMP - TEMPERATURE IN FAHRENHEIT  
DWPT - DEWPOINT IN FAHRENHEIT  
RH - RELATIVE HUMIDITY IN PERCENT  
WIND - DIRECTION AND SPEED /MPH FOR ISLANDS...KTS FOR BUOYS/  
PRES - MEAN SEA LEVEL PRESSURE IN INCHES OF HG  
VSB - VISIBILITY IN MILES  
HX - HEAT INDEX  
WCI - WIND CHILL INDEX  
VRB - VARIABLE WIND DIRECTION  
N/A - NOT AVAILABLE  
 
 
CLICK HERE TO GO TO PREVIOUS BULLETINS.

The Nexlab HI Page Main Text Page